Edinburgh, IN

2:04 AM EDT on August 26, 2016 (GMT -0400)
Himsel Army Airfld, Nineveh,

Weather History for K1II - June, 2014

Change the Weather History Date:

Wednesday, June 18, 2014

  Actual Average (KGEZ) Record (KGEZ)
Temperature  
Mean Temperature 79 °F 72 °F  
Max Temperature 89 °F 83 °F 92 °F (2014)
Min Temperature 69 °F 62 °F 48 °F (1999)
Degree Days  
Heating Degree Days 0 0  
Month to date heating degree days 11  
Since 1 June heating degree days 11  
Since 1 July heating degree days 5406  
Cooling Degree Days 14 8  
Month to date cooling degree days 108  
Year to date cooling degree days 189  
Since 1 June cooling degree days 108  
Growing Degree Days 29 (Base 50)    
Moisture  
Dew Point 69 °F    
Average Humidity 73    
Maximum Humidity 94    
Minimum Humidity 49    
Precipitation  
Precipitation 0.00 in 0.13 in 0.84 in (2004)
Month to date precipitation 2.74  
Year to date precipitation 20.52  
Sea Level Pressure  
Sea Level Pressure 30.04 in    
Wind  
Wind Speed 5 mph (SW)    
Max Wind Speed 14 mph    
Max Gust Speed 20 mph    
Visibility 8 miles    
Events Thunderstorm    
T = Trace of Precipitation, MM = Missing Value Source: NWS Daily Summary

Daily Weather History Graph

Daily Weather History Graph

Search for Another Location

Airport or City:

Trip Planner

Search our weather history database for the weather conditions in past years. The results will help you decide how hot, cold, wet, or windy it might be!

Date:

Astronomy

Jun. 18, 2014 Rise Set
Actual Time 6:17 AM EDT 9:13 PM EDT
Civil Twilight 5:44 AM EDT 9:45 PM EDT
Nautical Twilight 5:03 AM EDT 10:26 PM EDT
Astronomical Twilight 4:16 AM EDT 11:14 PM EDT
Moon 12:43 AM EDT (6/18) 12:37 PM EDT (6/18)
Length of Visible Light 16h 01m
Length of Day
14h 56m
Waning Gibbous, 63% of the Moon is Illuminated
Jun 18
Waning Gibbous
Jun 19
Last Quarter
Jun 27
New
Jul 5
First Quarter
Jul 12
Full

Hourly Weather History & Observations

Time (EDT) Temp. Heat Index Dew Point Humidity Pressure Visibility Wind Dir Wind Speed Gust Speed Precip Events Conditions
12:15 AM 73.4 °F - 68.0 °F 83% 30.06 in 7.0 mi SSW 3.5 mph - N/A   Clear
12:35 AM 73.4 °F - 68.0 °F 83% 30.05 in 7.0 mi SSW 3.5 mph - N/A   Clear
1:15 AM 73.4 °F - 68.0 °F 83% 30.05 in 10.0 mi SSW 3.5 mph - N/A   Clear
1:35 AM 75.2 °F - 68.0 °F 78% 30.05 in 10.0 mi Calm Calm - N/A   Clear
2:15 AM 73.4 °F - 68.0 °F 83% 30.04 in 10.0 mi SSW 4.6 mph - N/A   Clear
2:35 AM 73.4 °F - 68.0 °F 83% 30.04 in 10.0 mi SSW 5.8 mph - N/A   Clear
2:55 AM 73.4 °F - 68.0 °F 83% 30.05 in 7.0 mi SSW 4.6 mph - N/A   Clear
3:15 AM 73.4 °F - 68.0 °F 83% 30.05 in 7.0 mi SSW 4.6 mph - N/A   Clear
3:35 AM 73.4 °F - 68.0 °F 83% 30.05 in 7.0 mi Calm Calm - N/A   Clear
3:55 AM 73.4 °F - 68.0 °F 83% 30.05 in 10.0 mi Calm Calm - N/A   Clear
4:15 AM 71.6 °F - 68.0 °F 88% 30.05 in 10.0 mi Calm Calm - N/A   Clear
4:35 AM 71.6 °F - 68.0 °F 88% 30.04 in 7.0 mi Calm Calm - N/A   Clear
4:55 AM 71.6 °F - 68.0 °F 88% 30.04 in 7.0 mi Calm Calm - N/A   Clear
5:15 AM 69.8 °F - 68.0 °F 94% 30.04 in 7.0 mi Calm Calm - N/A   Clear
5:35 AM 69.8 °F - 68.0 °F 94% 30.04 in 5.0 mi North - - N/A   Clear
5:55 AM 69.8 °F - 68.0 °F 94% 30.04 in 4.0 mi Calm Calm - N/A   Clear
6:15 AM 69.8 °F - 68.0 °F 94% 30.03 in 7.0 mi Calm Calm - N/A   Clear
6:35 AM 69.8 °F - 68.0 °F 94% 30.03 in 7.0 mi Calm Calm - N/A   Clear
6:55 AM 69.8 °F - 68.0 °F 94% 30.04 in 7.0 mi Calm Calm - N/A   Clear
7:15 AM 71.6 °F - 68.0 °F 88% 30.05 in 5.0 mi SW 4.6 mph - N/A   Clear
7:35 AM 73.4 °F - 68.0 °F 83% 30.07 in 7.0 mi SW 4.6 mph - N/A   Clear
7:55 AM 73.4 °F - 68.0 °F 83% 30.07 in 7.0 mi SW 3.5 mph - N/A   Clear
8:15 AM 75.2 °F - 69.8 °F 83% 30.08 in 7.0 mi SW 5.8 mph - N/A   Clear
8:35 AM 77.0 °F - 69.8 °F 78% 30.08 in 5.0 mi WSW 5.8 mph - N/A   Haze
8:55 AM 77.0 °F - 69.8 °F 78% 30.08 in 10.0 mi SW 8.1 mph - N/A   Clear
9:15 AM 78.8 °F - 69.8 °F 74% 30.09 in 7.0 mi WSW 5.8 mph - N/A   Clear
9:35 AM 78.8 °F - 69.8 °F 74% 30.10 in 7.0 mi WSW 9.2 mph - N/A   Clear
9:55 AM 80.6 °F 83.9 °F 69.8 °F 70% 30.10 in 10.0 mi SW 11.5 mph - N/A   Clear
10:15 AM 80.6 °F 83.9 °F 69.8 °F 70% 30.09 in 7.0 mi WSW 11.5 mph - N/A   Clear
10:35 AM 82.4 °F 86.3 °F 69.8 °F 66% 30.08 in 7.0 mi SW 9.2 mph - N/A   Clear
10:55 AM 82.4 °F 86.3 °F 69.8 °F 66% 30.07 in 7.0 mi WSW 11.5 mph 17.3 mph N/A   Clear
11:15 AM 84.2 °F 88.4 °F 69.8 °F 62% 30.06 in 7.0 mi WSW 9.2 mph - N/A   Clear
11:35 AM 84.2 °F 88.4 °F 69.8 °F 62% 30.07 in 7.0 mi WSW 11.5 mph 17.3 mph N/A   Clear
11:55 AM 86.0 °F 90.4 °F 69.8 °F 58% 30.07 in 7.0 mi SSW 12.7 mph 18.4 mph N/A   Scattered Clouds
12:15 PM 86.0 °F 90.4 °F 69.8 °F 58% 30.07 in 7.0 mi SW 10.4 mph 16.1 mph N/A   Scattered Clouds
12:35 PM 86.0 °F 90.4 °F 69.8 °F 58% 30.07 in 7.0 mi SW 8.1 mph - N/A   Scattered Clouds
12:55 PM 86.0 °F 90.4 °F 69.8 °F 58% 30.07 in 7.0 mi SW 11.5 mph 16.1 mph N/A   Mostly Cloudy
1:15 PM 86.0 °F 90.4 °F 69.8 °F 58% 30.06 in 7.0 mi WSW 8.1 mph - N/A   Mostly Cloudy
1:30 PM 87.8 °F 92.6 °F 69.8 °F 55% 30.06 in 7.0 mi SSW 10.4 mph - N/A   Scattered Clouds
2:15 PM 87.8 °F 91.4 °F 68.0 °F 52% 30.05 in 7.0 mi SSW 9.2 mph - N/A   Scattered Clouds
2:35 PM 87.8 °F 92.6 °F 69.8 °F 55% 30.04 in 10.0 mi SW 11.5 mph - N/A   Clear
2:55 PM 87.8 °F 92.6 °F 69.8 °F 55% 30.02 in 7.0 mi South 9.2 mph - N/A   Scattered Clouds
3:35 PM 87.8 °F 91.4 °F 68.0 °F 52% 30.01 in 7.0 mi SSW 12.7 mph 18.4 mph N/A   Scattered Clouds
3:55 PM 87.8 °F 92.6 °F 69.8 °F 55% 30.01 in 7.0 mi SSW 12.7 mph 19.6 mph N/A   Clear
4:35 PM 87.8 °F 91.4 °F 68.0 °F 52% 30.00 in 7.0 mi SW 11.5 mph 16.1 mph N/A   Scattered Clouds
4:55 PM 89.6 °F 93.4 °F 68.0 °F 49% 30.00 in 7.0 mi WSW 13.8 mph 18.4 mph N/A   Clear
5:15 PM 87.8 °F 91.4 °F 68.0 °F 52% 30.00 in 7.0 mi SW 10.4 mph 17.3 mph N/A   Clear
5:35 PM 87.8 °F 92.6 °F 69.8 °F 55% 30.00 in 7.0 mi SW 9.2 mph - N/A   Clear
5:55 PM 86.0 °F 90.4 °F 69.8 °F 58% 30.00 in 7.0 mi SW 10.4 mph - N/A Thunderstorm Scattered Clouds
6:15 PM 86.0 °F 90.4 °F 69.8 °F 58% 29.99 in 7.0 mi SW 10.4 mph 16.1 mph N/A Thunderstorm Scattered Clouds
6:35 PM 86.0 °F 90.4 °F 69.8 °F 58% 30.01 in 7.0 mi SW 4.6 mph - N/A Thunderstorm Clear
6:55 PM 84.2 °F 88.4 °F 69.8 °F 62% 30.01 in 7.0 mi Calm Calm - N/A Thunderstorm Thunderstorm
7:15 PM 84.2 °F 89.6 °F 71.6 °F 66% 30.01 in 7.0 mi SSW 3.5 mph - N/A Thunderstorm Clear
7:35 PM 82.4 °F 87.2 °F 71.6 °F 70% 30.01 in 7.0 mi Calm Calm - N/A Thunderstorm Scattered Clouds
7:55 PM 78.8 °F - 68.0 °F 69% 30.01 in 10.0 mi NE 6.9 mph - N/A Thunderstorm Scattered Clouds
8:15 PM 77.0 °F - 66.2 °F 69% 30.01 in 7.0 mi ESE 3.5 mph - N/A   Scattered Clouds
8:35 PM 77.0 °F - 68.0 °F 74% 30.01 in 10.0 mi Calm Calm - N/A   Scattered Clouds
8:55 PM 77.0 °F - 68.0 °F 74% 29.98 in 7.0 mi South 3.5 mph - N/A   Scattered Clouds
9:15 PM 77.0 °F - 68.0 °F 74% 29.99 in 7.0 mi Calm Calm - N/A   Clear
9:35 PM 75.2 °F - 68.0 °F 78% 30.00 in 10.0 mi Calm Calm - N/A   Clear
9:55 PM 73.4 °F - 68.0 °F 83% 30.00 in 10.0 mi Calm Calm - N/A   Clear
10:15 PM 73.4 °F - 68.0 °F 83% 30.02 in 10.0 mi Calm Calm - N/A   Clear
10:35 PM 73.4 °F - 68.0 °F 83% 30.03 in 10.0 mi WSW 3.5 mph - N/A   Clear
10:55 PM 77.0 °F - 68.0 °F 74% 30.03 in 10.0 mi Calm Calm - N/A   Clear
11:15 PM 73.4 °F - 68.0 °F 83% 30.03 in 10.0 mi SSW 3.5 mph - N/A   Clear
11:35 PM 77.0 °F - 68.0 °F 74% 30.03 in 10.0 mi SW 4.6 mph - N/A   Clear
11:50 PM 73.4 °F - 68.0 °F 83% 30.04 in 10.0 mi Calm Calm - N/A   Clear